DW3152 Batsto/Baatstoe NO current weather conditions

sailwx.info

Wind from 217

Air temperature 12.2° C
Dewpoint 10.5° C

Last reported at 2018-May-25 02:58 UTC.
Time now 2018-May-25 03:30 UTC

Location: N 59°43' E 010°31'.
View on Google Maps.

See reports from other nearby stations

  
Tides and Currents Weather Stations Pressure Air Temp Water Temp Dewpoint Dewpoint Depression Visibility Wind Speed Wind Dir Waves Ship Positions
date/time (UTC)wind fromknots sea level pressurealtimeterstation pressurevisibilityair tempwater tempwave heightnotes
2018-May-25 02:58 217 12.2
2018-May-25 02:54 217 11.7
2018-May-25 02:48 217 12.2
2018-May-25 02:43 217 12.2
2018-May-25 02:38 217 12.2
2018-May-25 02:33 217 12.2
2018-May-25 02:28 217 12.2
2018-May-25 02:23 217 12.2
2018-May-25 02:18 217 12.2
2018-May-25 02:13 217 12.2
2018-May-25 02:08 217 12.2
2018-May-25 02:03 217 12.2
2018-May-25 01:58 217 12.2
2018-May-25 01:53 217 12.8
2018-May-25 01:48 217 12.8
2018-May-25 01:43 217 12.8
2018-May-25 01:38 217 12.8
2018-May-25 01:33 217 12.8
2018-May-25 01:28 217 13.3
2018-May-25 01:23 217 13.3
2018-May-25 01:18 217 13.3
2018-May-25 01:13 217 13.3
2018-May-25 01:08 217 13.3
2018-May-25 01:03 217 13.3
2018-May-25 00:58 217 13.3
2018-May-25 00:53 217 13.3
2018-May-25 00:48 217 13.3
2018-May-25 00:43 217 13.3
2018-May-25 00:38 217 13.3
2018-May-25 00:33 217 13.9
2018-May-25 00:28 217 13.9
2018-May-25 00:23 217 13.9
2018-May-25 00:18 217 13.9
2018-May-25 00:13 217 13.9
2018-May-25 00:08 217 13.9
2018-May-24 23:58 217 14.4
2018-May-24 23:53 217 14.4
2018-May-24 23:48 217 14.4
2018-May-24 23:43 217 14.4
2018-May-24 23:38 217 14.4
2018-May-24 23:33 217 15.0
2018-May-24 23:28 217 15.0
2018-May-24 23:23 217 15.0
2018-May-24 23:18 217 15.0
2018-May-24 23:13 217 15.0
2018-May-24 23:08 217 15.6
2018-May-24 23:03 217 15.6
2018-May-24 22:58 217 15.6
2018-May-24 22:54 217 15.6
2018-May-24 22:48 217 16.1
2018-May-24 22:43 217 16.7
2018-May-24 22:38 178 17.2
2018-May-24 22:33 161 0 gusting 4 17.2
2018-May-24 22:28 137 17.2
2018-May-24 22:23 160 17.8
2018-May-24 22:18 162 17.8
2018-May-24 22:13 167 17.8
2018-May-24 22:08 166 17.8
2018-May-24 22:03 167 17.8
2018-May-24 21:58 167 17.8
2018-May-24 21:54 165 17.8
2018-May-24 21:48 165 17.8
2018-May-24 21:43 166 17.2
2018-May-24 21:38 153 16.7
2018-May-24 21:33 147 16.7
2018-May-24 21:28 147 16.7
2018-May-24 21:23 147 17.2
2018-May-24 21:18 147 17.2
2018-May-24 21:13 147 17.8
2018-May-24 21:08 147 18.3
2018-May-24 21:03 147 18.3
2018-May-24 20:58 147 18.9
2018-May-24 20:53 147 18.9
2018-May-24 20:48 147 18.9
2018-May-24 20:43 147 18.9
2018-May-24 20:38 147 18.9
2018-May-24 20:33 147 18.9
2018-May-24 20:28 147 18.9
2018-May-24 20:23 147 18.9
2018-May-24 20:18 147 19.4
2018-May-24 20:13 147 20.0
2018-May-24 20:08 147 20.0
2018-May-24 20:03 147 20.0
2018-May-24 19:58 147 20.6
2018-May-24 19:53 147 21.1
2018-May-24 19:48 147 21.1
2018-May-24 19:43 147 21.1
2018-May-24 19:38 147 21.7
2018-May-24 19:33 147 21.7
2018-May-24 19:28 147 21.7
2018-May-24 19:23 147 22.2
2018-May-24 19:18 147 22.2
2018-May-24 19:13 147 22.8
2018-May-24 19:08 147 22.8
2018-May-24 19:03 147 22.8
2018-May-24 18:58 147 22.8
2018-May-24 18:54 147 22.8
2018-May-24 18:48 147 23.3
2018-May-24 18:43 147 23.3
2018-May-24 18:38 147 23.3
2018-May-24 18:33 147 23.3
2018-May-24 18:28 147 0 gusting 1 23.9
2018-May-24 18:23 155 23.9
2018-May-24 18:18 157 23.9
2018-May-24 18:13 167 0 gusting 6 23.9
2018-May-24 18:08 138 23.9
2018-May-24 18:03 147 24.4
2018-May-24 17:58 156 0 gusting 4 24.4
2018-May-24 17:54 147 24.4
2018-May-24 17:48 148 0 gusting 10 24.4
2018-May-24 17:43 166 2 gusting 7 24.4
2018-May-24 17:38 130 2 gusting 7 24.4
2018-May-24 17:33 148 0 gusting 10 24.4
2018-May-24 17:28 142 6 gusting 10 24.4
2018-May-24 17:23 140 1 gusting 6 25.0
2018-May-24 17:18 153 3 gusting 6 25.0
2018-May-24 17:13 117 3 gusting 6 25.0
2018-May-24 17:08 157 25.6
2018-May-24 17:03 197 25.0
2018-May-24 16:58 138 25.0
2018-May-24 16:53 151 3 gusting 8 25.0
2018-May-24 16:48 143 3 gusting 9 25.0
2018-May-24 16:43 132 6 gusting 10 25.0
2018-May-24 16:38 134 6 gusting 10 25.0
2018-May-24 16:33 142 5 gusting 12 25.0
2018-May-24 16:28 142 5 gusting 12 25.0
2018-May-24 16:23 138 8 gusting 10 25.0
2018-May-24 16:18 154 3 gusting 14 25.0
2018-May-24 16:13 150 5 gusting 14 25.0
2018-May-24 16:08 128 6 gusting 11 25.6
2018-May-24 16:03 141 7 gusting 11 25.0
2018-May-24 15:58 136 5 gusting 11 25.0
2018-May-24 15:53 144 5 gusting 11 25.0
2018-May-24 15:48 142 5 gusting 10 25.6
2018-May-24 15:43 144 5 gusting 11 25.6
2018-May-24 15:38 154 6 gusting 11 25.6
2018-May-24 15:33 147 6 gusting 11 25.0
2018-May-24 15:28 131 5 gusting 9 24.4
2018-May-24 15:23 138 6 gusting 10 24.4
2018-May-24 15:18 140 6 gusting 10 24.4
2018-May-24 15:13 136 3 gusting 13 24.4
2018-May-24 15:08 130 8 gusting 13 24.4
2018-May-24 15:03 123 9 gusting 13 24.4
2018-May-24 14:58 138 3 gusting 11 24.4
2018-May-24 14:53 119 8 gusting 11 25.0
2018-May-24 14:48 130 5 gusting 13 25.0
2018-May-24 14:43 140 6 gusting 13 24.4
2018-May-24 14:38 119 8 gusting 12 25.0
2018-May-24 14:33 139 4 gusting 8 25.6
2018-May-24 14:28 153 5 gusting 9 25.0
2018-May-24 14:23 128 6 gusting 9 24.4
2018-May-24 14:18 142 3 gusting 10 25.0
2018-May-24 14:13 140 7 gusting 13 24.4
2018-May-24 14:08 110 11 gusting 13 24.4
2018-May-24 14:03 132 5 gusting 9 25.0
2018-May-24 13:58 128 7 gusting 12 25.0
2018-May-24 13:53 123 6 gusting 12 25.0
2018-May-24 13:48 137 4 gusting 11 25.0
2018-May-24 13:43 116 8 gusting 11 25.6
2018-May-24 13:33 124 6 gusting 9 24.4
2018-May-24 13:28 115 5 gusting 11 25.0
2018-May-24 13:23 115 6 gusting 11 25.0
2018-May-24 13:18 112 5 gusting 13 25.6
2018-May-24 13:13 141 6 gusting 13 25.0
2018-May-24 13:08 136 6 gusting 12 25.0
2018-May-24 13:03 134 7 gusting 13 25.0
2018-May-24 12:58 129 7 gusting 13 25.0
2018-May-24 12:53 139 6 gusting 12 25.0
2018-May-24 12:48 121 9 gusting 12 25.6
2018-May-24 12:43 140 7 gusting 10 25.0
2018-May-24 12:38 119 6 gusting 9 25.0
2018-May-24 12:33 144 7 gusting 12 25.6
2018-May-24 12:28 130 9 gusting 12 25.6
2018-May-24 12:23 134 9 gusting 12 25.6
2018-May-24 12:18 131 9 gusting 14 25.6
2018-May-24 12:13 127 8 gusting 14 25.0
2018-May-24 12:08 131 8 gusting 13 25.0
2018-May-24 12:03 130 7 gusting 12 25.0
2018-May-24 11:58 126 8 gusting 12 25.0
2018-May-24 11:54 121 4 gusting 9 25.0
2018-May-24 11:48 135 5 gusting 7 24.4
2018-May-24 11:43 129 2 gusting 9 24.4
2018-May-24 11:38 119 6 gusting 9 24.4
2018-May-24 11:33 146 3 gusting 6 23.3
2018-May-24 11:28 038 22.2
2018-May-24 11:23 360 21.1
2018-May-24 11:18 360 20.6
2018-May-24 11:13 360 20.0
2018-May-24 11:08 360 20.0
2018-May-24 11:03 360 19.4
2018-May-24 10:58 360 18.9
2018-May-24 10:53 360 18.3
2018-May-24 10:48 360 17.8
2018-May-24 10:43 360 2 gusting 4 17.8
2018-May-24 10:38 360 3 gusting 4 17.2
2018-May-24 10:33 360 3 gusting 4 17.2
2018-May-24 10:28 360 3 gusting 4 17.2
2018-May-24 10:23 360 3 gusting 4 17.2
2018-May-24 10:18 360 2 gusting 3 17.2
2018-May-24 10:13 360 2 gusting 3 17.2
2018-May-24 10:08 360 2 gusting 4 17.2
2018-May-24 10:03 360 3 gusting 4 16.7
2018-May-24 09:58 360 3 gusting 4 16.7
2018-May-24 09:54 360 3 gusting 4 16.7
2018-May-24 09:48 360 3 gusting 5 16.7
2018-May-24 09:43 360 3 gusting 5 16.1
2018-May-24 09:38 360 4 gusting 5 16.1
2018-May-24 09:33 360 4 gusting 5 16.1
2018-May-24 09:28 360 4 gusting 6 16.1
2018-May-24 09:23 360 4 gusting 6 16.1
2018-May-24 09:18 005 4 gusting 6 16.1
2018-May-24 09:13 009 4 gusting 6 15.6
2018-May-24 09:08 019 4 gusting 4 15.6
2018-May-24 09:03 019 3 gusting 4 15.6
2018-May-24 08:58 030 3 gusting 4 15.6
2018-May-24 08:53 030 3 gusting 4 15.6
2018-May-24 08:48 030 3 gusting 4 15.6
2018-May-24 08:43 035 3 gusting 4 15.6
2018-May-24 08:38 039 3 gusting 3 15.6
2018-May-24 08:33 042 2 gusting 3 15.6
2018-May-24 08:28 046 2 gusting 3 15.6
2018-May-24 08:23 046 2 gusting 4 15.6
2018-May-24 08:18 046 3 gusting 4 15.6
2018-May-24 08:13 046 2 gusting 4 15.6
2018-May-24 08:08 046 2 gusting 4 15.6
2018-May-24 08:03 154 2 gusting 3 15.6
2018-May-24 07:58 154 15.6
2018-May-24 07:53 154 15.6
2018-May-24 07:48 154 15.6
2018-May-24 07:43 154 15.6
2018-May-24 07:38 154 15.0
2018-May-24 07:33 154 14.4
2018-May-24 07:28 154 13.9
2018-May-24 07:23 154 13.3
2018-May-24 07:18 154 13.3
2018-May-24 07:13 154 12.8
2018-May-24 07:08 154 12.8
2018-May-24 07:03 154 12.8
2018-May-24 06:58 154 12.8
2018-May-24 06:53 154 12.2
2018-May-24 06:48 154 12.2
2018-May-24 06:43 154 12.2
2018-May-24 06:38 154 12.2
2018-May-24 06:33 154 12.2
2018-May-24 06:28 154 12.8
2018-May-24 06:23 154 12.8
2018-May-24 06:18 154 12.8
2018-May-24 06:13 154 12.8
2018-May-24 06:08 154 12.8
2018-May-24 06:03 154 12.8
2018-May-24 05:58 154 12.8
2018-May-24 05:54 154 12.8
2018-May-24 05:48 154 12.8
2018-May-24 05:43 154 12.8
2018-May-24 05:38 154 12.8
2018-May-24 05:33 154 12.8
2018-May-24 05:28 154 12.8
2018-May-24 05:23 154 12.8
2018-May-24 05:18 154 12.8
2018-May-24 05:13 154 13.3
2018-May-24 05:08 154 13.3
2018-May-24 05:03 154 13.3
2018-May-24 04:58 154 13.3
2018-May-24 04:53 154 12.8
2018-May-24 04:48 154 12.8
2018-May-24 04:43 154 12.8
2018-May-24 04:38 154 12.8
2018-May-24 04:33 154 12.2
2018-May-24 04:28 154 1 gusting 3 11.7
2018-May-24 04:23 154 2 gusting 5 12.2
2018-May-24 04:18 154 3 gusting 5 12.2
2018-May-24 04:13 167 2 gusting 5 12.2
2018-May-24 04:08 174 2 gusting 3 12.2
2018-May-24 04:03 177 12.2
2018-May-24 03:58 177 12.2
2018-May-24 03:53 177 12.2
2018-May-24 03:48 177 11.7
2018-May-24 03:43 177 11.1
2018-May-24 03:38 177 11.1
2018-May-24 03:33 177 10.6
2018-May-24 03:28 177 10.6
2018-May-24 03:23 177 10.6
2018-May-24 03:18 177 10.0
2018-May-24 03:13 177 10.0
2018-May-24 03:08 177 10.0
2018-May-24 03:03 177 10.0
2018-May-24 02:58 177 10.0
2018-May-24 02:54 177 10.0
2018-May-24 02:48 177 10.0
2018-May-24 02:43 177 10.6
2018-May-24 02:38 177 10.6
2018-May-24 02:33 177 10.6
2018-May-24 02:28 177 10.6
2018-May-24 02:23 177 10.6
2018-May-24 02:18 177 10.6
2018-May-24 02:13 177 10.6
2018-May-24 02:08 177 10.6
2018-May-24 02:03 177 11.1
2018-May-24 01:58 177 11.1
2018-May-24 01:53 177 11.1
2018-May-24 01:48 177 11.1
2018-May-24 01:43 177 11.1
2018-May-24 01:38 177 11.1
2018-May-24 01:33 177 11.1
2018-May-24 01:28 177 11.1
2018-May-24 01:23 177 11.1
2018-May-24 01:18 177 11.1
2018-May-24 01:13 177 11.1
2018-May-24 01:08 177 11.1
2018-May-24 01:03 177 11.1
2018-May-24 00:58 177 11.1
2018-May-24 00:53 177 11.1
2018-May-24 00:48 177 11.1
2018-May-24 00:43 177 11.7
2018-May-24 00:38 177 11.7
2018-May-24 00:33 177 11.7
2018-May-24 00:28 177 11.7
2018-May-24 00:23 177 12.2
2018-May-24 00:18 177 12.2
2018-May-24 00:13 177 12.2
2018-May-24 00:08 177 12.2
2018-May-24 00:03 177 12.2
2018-May-23 23:58 177 12.2
2018-May-23 23:53 177 12.2
2018-May-23 23:48 177 12.2
2018-May-23 23:43 177 12.2
2018-May-23 23:38 177 12.2
2018-May-23 23:33 177 12.2
2018-May-23 23:28 177 12.2
2018-May-23 23:23 177 12.2
2018-May-23 23:18 177 12.8
2018-May-23 23:13 177 12.8
2018-May-23 23:08 177 12.8
2018-May-23 23:03 177 12.8
2018-May-23 22:58 177 12.8
2018-May-23 22:53 177 13.3
2018-May-23 22:48 177 13.3
2018-May-23 22:43 177 13.3
2018-May-23 22:38 177 13.3
2018-May-23 22:33 177 13.3
2018-May-23 22:28 177 13.3
2018-May-23 22:23 177 13.3
2018-May-23 22:18 177 13.3
2018-May-23 22:13 178 13.9
2018-May-23 22:08 178 13.9
2018-May-23 22:03 178 13.9
2018-May-23 21:58 178 13.9
2018-May-23 21:53 178 13.9
2018-May-23 21:48 178 14.4
2018-May-23 21:43 178 15.0
2018-May-23 21:38 178 15.0
2018-May-23 21:33 178 15.6
2018-May-23 21:28 178 15.6
2018-May-23 21:23 178 16.1
2018-May-23 21:18 178 16.7
2018-May-23 21:13 178 16.7
2018-May-23 21:08 178 17.2
2018-May-23 21:03 178 17.2
2018-May-23 20:58 179 17.2
2018-May-23 20:53 180 17.2
2018-May-23 20:48 177 16.1
2018-May-23 20:43 179 16.1
2018-May-23 20:38 179 16.1
2018-May-23 20:33 179 16.7
2018-May-23 20:28 179 17.2
2018-May-23 20:23 179 17.2
2018-May-23 20:18 179 17.8
2018-May-23 20:13 179 18.3
2018-May-23 20:08 179 18.3
2018-May-23 20:03 171 18.3
2018-May-23 19:58 171 18.3
2018-May-23 19:54 171 18.9
2018-May-23 19:48 171 18.9
2018-May-23 19:43 171 19.4
2018-May-23 19:38 171 19.4
2018-May-23 19:33 171 19.4
2018-May-23 19:28 171 19.4
2018-May-23 19:23 171 20.0
2018-May-23 19:18 171 20.0
2018-May-23 19:13 175 20.0
2018-May-23 19:08 171 20.6
2018-May-23 19:03 174 20.6
2018-May-23 18:58 161 20.6
2018-May-23 18:53 157 20.6
2018-May-23 18:48 169 0 gusting 6 20.6
2018-May-23 18:43 153 1 gusting 6 21.1
2018-May-23 18:38 162 21.1
2018-May-23 18:33 157 2 gusting 7 21.1
2018-May-23 18:28 150 3 gusting 7 21.1
2018-May-23 18:23 159 4 gusting 6 21.1
2018-May-23 18:18 140 3 gusting 6 21.7
2018-May-23 18:13 167 3 gusting 6 21.7
2018-May-23 18:08 156 21.7
2018-May-23 18:03 167 4 gusting 7 21.7
2018-May-23 17:58 153 2 gusting 7 21.7
2018-May-23 17:53 147 0 gusting 7 21.7
2018-May-23 17:48 151 3 gusting 7 21.7
2018-May-23 17:43 146 4 gusting 7 21.7
2018-May-23 17:38 159 2 gusting 7 22.2
2018-May-23 17:33 159 0 gusting 9 22.2
2018-May-23 17:28 169 3 gusting 9 22.2
2018-May-23 17:23 150 5 gusting 7 22.2
2018-May-23 17:18 150 4 gusting 7 22.8
2018-May-23 17:13 143 4 gusting 6 22.8
2018-May-23 17:08 150 4 gusting 7 22.8
2018-May-23 17:03 139 4 gusting 7 22.8
2018-May-23 16:58 124 3 gusting 6 22.8
2018-May-23 16:54 159 3 gusting 6 22.8
2018-May-23 16:48 149 2 gusting 7 23.3
2018-May-23 16:43 149 5 gusting 7 23.3
2018-May-23 16:38 141 4 gusting 8 23.3
2018-May-23 16:33 146 5 gusting 8 23.3
2018-May-23 16:28 146 5 gusting 8 23.3
2018-May-23 16:23 148 3 gusting 9 23.9
2018-May-23 16:18 136 3 gusting 9 23.9
2018-May-23 16:13 135 5 gusting 9 23.9
2018-May-23 16:08 133 6 gusting 10 23.9
2018-May-23 16:03 129 5 gusting 10 23.9
2018-May-23 15:58 135 3 gusting 10 23.9
2018-May-23 15:53 133 7 gusting 11 23.9
2018-May-23 15:48 137 7 gusting 11 23.9
2018-May-23 15:43 153 6 gusting 10 23.9
2018-May-23 15:38 144 5 gusting 10 23.9
2018-May-23 15:33 140 4 gusting 10 23.9
2018-May-23 15:28 122 5 gusting 9 24.4
2018-May-23 15:23 157 2 gusting 8 23.9
2018-May-23 15:18 144 5 gusting 8 23.9
2018-May-23 15:13 150 5 gusting 8 23.9
2018-May-23 15:08 136 5 gusting 8 23.9
2018-May-23 15:03 136 5 gusting 7 23.9
2018-May-23 14:58 127 2 gusting 6 23.3
2018-May-23 14:53 128 5 gusting 6 23.3
2018-May-23 14:48 130 3 gusting 6 23.3
2018-May-23 14:43 126 4 gusting 6 23.3
2018-May-23 14:38 106 2 gusting 6 23.3
2018-May-23 14:33 112 2 gusting 6 23.3
2018-May-23 14:28 126 22.8
2018-May-23 14:23 126 1 gusting 4 22.8
2018-May-23 14:18 126 1 gusting 4 22.8
2018-May-23 14:13 121 2 gusting 3 22.2
2018-May-23 14:08 350 21.7
2018-May-23 14:03 350 0 gusting 2 21.1
2018-May-23 13:58 340 20.6
2018-May-23 13:53 340 20.6
2018-May-23 13:48 340 20.6
2018-May-23 13:43 340 20.0
2018-May-23 13:38 340 19.4
2018-May-23 13:33 340 20.0
2018-May-23 13:28 340 20.6
2018-May-23 13:23 340 20.6
2018-May-23 13:18 340 20.6
2018-May-23 13:13 340 20.0
2018-May-23 13:08 340 19.4
2018-May-23 13:03 340 18.9
2018-May-23 12:58 340 18.9
2018-May-23 12:53 340 2 gusting 3 18.9
2018-May-23 12:48 340 2 gusting 4 18.9
2018-May-23 12:43 340 2 gusting 4 18.9
2018-May-23 12:38 340 1 gusting 3 18.9
2018-May-23 12:33 340 19.4
2018-May-23 12:28 340 19.4
2018-May-23 12:23 340 18.9
2018-May-23 12:18 340 18.9
2018-May-23 12:13 340 18.9
2018-May-23 12:08 340 18.9
2018-May-23 12:03 340 1 gusting 2 18.3
2018-May-23 11:58 340 18.3
2018-May-23 11:53 340 18.3
2018-May-23 11:48 340 2 gusting 3 18.3
2018-May-23 11:43 340 18.3
2018-May-23 11:38 340 18.9
2018-May-23 11:33 341 18.9
2018-May-23 11:28 341 18.9
2018-May-23 11:23 341 18.9
2018-May-23 11:18 341 18.9
2018-May-23 11:13 341 18.9
2018-May-23 11:08 341 18.9
2018-May-23 11:03 341 18.9
2018-May-23 10:58 341 20.0
2018-May-23 10:53 341 20.0
2018-May-23 10:48 341 20.0
2018-May-23 10:43 341 20.0
2018-May-23 10:38 341 20.0
2018-May-23 10:33 341 19.4
2018-May-23 10:28 341 19.4
2018-May-23 10:23 341 19.4
2018-May-23 10:18 341 18.9
2018-May-23 10:13 341 18.9
2018-May-23 10:08 341 18.9
2018-May-23 10:03 341 18.3
2018-May-23 09:58 341 17.2
2018-May-23 09:53 341 17.2
2018-May-23 09:48 341 17.2
2018-May-23 09:43 341 16.7
2018-May-23 09:38 341 16.7
2018-May-23 09:33 341 16.7
2018-May-23 09:28 341 16.7
2018-May-23 09:23 341 3 gusting 4 16.7
2018-May-23 09:18 341 3 gusting 5 16.7
2018-May-23 09:13 341 4 gusting 5 16.1
2018-May-23 09:08 340 5 gusting 6 16.1
2018-May-23 09:03 340 5 gusting 6 16.1
2018-May-23 08:58 340 5 gusting 6 16.1
2018-May-23 08:54 340 4 gusting 7 16.1
2018-May-23 08:48 339 5 gusting 7 16.1
2018-May-23 08:43 340 6 gusting 8 16.1
2018-May-23 08:38 337 6 gusting 8 16.1
2018-May-23 08:33 335 6 gusting 8 16.7
2018-May-23 08:28 336 6 gusting 8 16.1
2018-May-23 08:23 336 7 gusting 8 16.1
2018-May-23 08:18 338 6 gusting 7 16.1
2018-May-23 08:13 338 6 gusting 9 16.1
2018-May-23 08:08 338 6 gusting 9 16.1
2018-May-23 08:03 333 7 gusting 8 16.1
2018-May-23 07:58 334 6 gusting 7 16.1
2018-May-23 07:53 334 6 gusting 7 16.1
2018-May-23 07:48 335 6 gusting 9 16.1
2018-May-23 07:43 333 7 gusting 9 16.1
2018-May-23 07:38 333 8 gusting 9 16.1
2018-May-23 07:33 331 6 gusting 9 15.6
2018-May-23 07:28 327 7 gusting 9 15.6
2018-May-23 07:23 328 8 gusting 9 15.6
2018-May-23 07:18 328 7 gusting 9 15.6
2018-May-23 07:13 331 7 gusting 9 15.6
2018-May-23 07:08 332 7 gusting 9 15.6
2018-May-23 07:03 318 7 gusting 9 15.6
2018-May-23 06:58 324 7 gusting 9 15.6
2018-May-23 06:53 325 6 gusting 9 15.6
2018-May-23 06:48 322 7 gusting 9 15.6
2018-May-23 06:43 322 6 gusting 7 15.0
2018-May-23 06:38 322 4 gusting 5 15.0
2018-May-23 06:33 325 5 gusting 6 15.0
2018-May-23 06:28 325 4 gusting 6 15.0
2018-May-23 06:23 326 6 gusting 6 15.0
2018-May-23 06:18 327 4 gusting 6 15.0
2018-May-23 06:13 327 5 gusting 6 15.0
2018-May-23 06:08 321 5 gusting 6 15.0
2018-May-23 06:03 325 4 gusting 6 15.0
2018-May-23 05:58 323 4 gusting 6 15.0
2018-May-23 05:53 314 3 gusting 5 15.0
2018-May-23 05:48 309 1 gusting 4 15.0
2018-May-23 05:43 302 2 gusting 4 15.0
2018-May-23 05:38 301 2 gusting 4 15.0
2018-May-23 05:33 298 15.0
2018-May-23 05:28 296 15.6
2018-May-23 05:23 283 15.6
2018-May-23 05:18 281 15.6
2018-May-23 05:13 281 15.6
2018-May-23 05:08 276 15.0
2018-May-23 04:58 276 15.0
2018-May-23 04:53 276 14.4
2018-May-23 04:48 276 14.4
2018-May-23 04:43 276 14.4
2018-May-23 04:38 276 13.9
2018-May-23 04:33 276 13.9
2018-May-23 04:28 276 13.3
2018-May-23 04:23 276 13.3
2018-May-23 04:18 276 12.8
2018-May-23 04:13 276 13.3
2018-May-23 04:08 276 12.8
2018-May-23 04:03 276 12.8
2018-May-23 03:58 276 12.8
2018-May-23 03:53 276 12.8
2018-May-23 03:48 276 12.2
2018-May-23 03:43 276 12.2
2018-May-23 03:38 276 11.7
2018-May-23 03:33 276 11.7
2018-May-23 03:28 276 11.1
2018-May-23 03:23 276 11.1
2018-May-23 03:18 276 10.6
2018-May-23 03:13 276 10.6
2018-May-23 03:08 276 10.6
2018-May-23 03:03 276 10.6